GW5883 Weather Reports


Display with metric or nautical units.
time (UTC)temp
F
wind
direction
speed
MPH
gust
MPH
rain 1hr
in
rain 24hr
in
rain mn
in
humidity
%
barometer
mb
20260905234339 91 142 0.0 0.0 0.00 0.00 0.00 62 1014.1
20260905233834 92 145 0.0 0.0 0.00 0.00 0.00 59 1014.3
20260905233329 93 145 0.0 0.0 0.00 0.00 0.00 59 1014.4
20260905232828 93 147 0.0 0.0 0.00 0.00 0.00 59 1014.3
20260905232325 94 147 0.0 0.0 0.00 0.00 0.00 56 1014.3
20260905231820 94 141 0.0 0.0 0.00 0.00 0.00 55 1014.2
20260905231315 95 141 0.0 0.0 0.00 0.00 0.00 52 1014.1
20260905230812 96 150 0.0 0.0 0.00 0.00 0.00 50 1014.1
20260905230309 96 145 0.0 0.0 0.00 0.00 0.00 50 1014.1
20260905225809 96 143 0.0 0.0 0.00 0.00 0.00 46 1014.1
20260905225306 97 153 0.0 0.0 0.00 0.00 0.00 47 1014.1
20260905224803 97 144 0.0 0.0 0.00 0.00 0.00 46 1013.9
20260905224259 97 150 0.0 0.0 0.00 0.00 0.00 47 1014.0
20260905223755 97 111 0.0 1.0 0.00 0.00 0.00 45 1014.2
20260905223252 97 150 0.0 0.0 0.00 0.00 0.00 45 1014.0
20260905222747 97 120 0.0 0.0 0.00 0.00 0.00 45 1014.1
20260905222246 97 116 0.0 0.0 0.00 0.00 0.00 44 1013.9
20260905221742 98 134 1.0 1.0 0.00 0.00 0.00 44 1014.2
20260905221239 98 110 1.0 1.0 0.00 0.00 0.00 43 1014.3
20260905220734 98 112 1.0 1.0 0.00 0.00 0.00 43 1014.0
20260905220230 99 114 0.0 1.0 0.00 0.00 0.00 42 1014.2
20260905215729 99 158 0.0 0.0 0.00 0.00 0.00 42 1014.0
20260905215225 99 138 0.0 0.0 0.00 0.00 0.00 42 1014.0
20260905214721 99 172 1.0 1.0 0.00 0.00 0.00 42 1014.1
20260905214216 99 141 0.0 0.0 0.00 0.00 0.00 43 1014.2
20260905213712 99 143 0.0 0.0 0.00 0.00 0.00 44 1014.2
20260905213208 99 168 0.0 1.0 0.00 0.00 0.00 45 1014.4
20260905212702 99 147 0.0 0.0 0.00 0.00 0.00 44 1014.3
20260905212201 99 135 0.0 0.0 0.00 0.00 0.00 44 1014.2
20260905211656 99 133 0.0 0.0 0.00 0.00 0.00 44 1014.2
20260905211151 99 334 2.0 2.0 0.00 0.00 0.00 43 1014.2
20260905210649 99 52 2.0 2.0 0.00 0.00 0.00 43 1014.4
20260905210148 99 151 0.0 1.0 0.00 0.00 0.00 43 1014.4
20260905205647 99 139 1.0 2.0 0.00 0.00 0.00 42 1014.4
20260905205141 99 103 0.0 0.0 0.00 0.00 0.00 42 1014.4
20260905204640 100 89 1.0 2.0 0.00 0.00 0.00 40 1014.6
20260905204137 100 150 0.0 0.0 0.00 0.00 0.00 41 1014.5
20260905203636 100 151 0.0 0.0 0.00 0.00 0.00 40 1014.6
20260905203132 100 143 0.0 0.0 0.00 0.00 0.00 41 1014.8
20260905202627 100 178 0.0 1.0 0.00 0.00 0.00 42 1015.0
20260905202123 101 12 2.0 3.0 0.00 0.00 0.00 40 1015.0
20260905201618 101 161 0.0 0.0 0.00 0.00 0.00 42 1015.1
20260905201117 101 131 1.0 1.0 0.00 0.00 0.00 40 1015.1
20260905200613 101 44 2.0 2.0 0.00 0.00 0.00 39 1015.3
20260905200109 101 142 0.0 0.0 0.00 0.00 0.00 40 1015.0
20260905195602 101 152 0.0 1.0 0.00 0.00 0.00 40 1015.5
20260905195057 100 150 0.0 0.0 0.00 0.00 0.00 40 1015.2
20260905194557 100 125 2.0 2.0 0.00 0.00 0.00 39 1015.3
20260905194056 100 134 0.0 1.0 0.00 0.00 0.00 41 1015.3
20260905193551 100 216 2.0 3.0 0.00 0.00 0.00 42 1015.5
20260905193046 101 146 2.0 2.0 0.00 0.00 0.00 41 1015.7
20260905192542 100 105 0.0 0.0 0.00 0.00 0.00 43 1015.7
20260905192038 98 160 0.0 0.0 0.00 0.00 0.00 45 1015.9
20260905191536 98 129 0.0 0.0 0.00 0.00 0.00 43 1015.8
20260905191035 99 180 1.0 1.0 0.00 0.00 0.00 43 1015.8
20260905190534 99 76 1.0 1.0 0.00 0.00 0.00 44 1015.8
20260905190033 99 178 2.0 2.0 0.00 0.00 0.00 42 1015.7
20260905185533 101 197 1.0 1.0 0.00 0.00 0.00 41 1015.9
20260905185033 104 117 1.0 2.0 0.00 0.00 0.00 39 1015.9
20260905184533 104 116 0.0 1.0 0.00 0.00 0.00 39 1016.0
20260905184032 103 39 1.0 2.0 0.00 0.00 0.00 39 1016.2
20260905183531 102 132 1.0 2.0 0.00 0.00 0.00 40 1016.3
20260905183027 102 189 2.0 2.0 0.00 0.00 0.00 40 1016.4
20260905182521 102 148 0.0 1.0 0.00 0.00 0.00 40 1016.4
20260905182021 101 150 2.0 2.0 0.00 0.00 0.00 40 1016.5
20260905181516 100 168 1.0 2.0 0.00 0.00 0.00 42 1016.4
20260905181015 100 146 1.0 1.0 0.00 0.00 0.00 42 1016.9
20260905180510 99 187 0.0 1.0 0.00 0.00 0.00 41 1016.7
20260905180005 99 161 0.0 0.0 0.00 0.00 0.00 45 1016.7
20260905175504 99 73 1.0 2.0 0.00 0.00 0.00 43 1017.0
20260905175000 100 233 1.0 2.0 0.00 0.00 0.00 42 1016.9
20260905174455 101 144 1.0 1.0 0.00 0.00 0.00 42 1017.2
20260905173951 102 169 0.0 0.0 0.00 0.00 0.00 41 1017.1
20260905173447 101 130 0.0 0.0 0.00 0.00 0.00 42 1017.2
20260905172942 101 178 1.0 2.0 0.00 0.00 0.00 40 1017.1
20260905172440 101 348 2.0 2.0 0.00 0.00 0.00 42 1017.2
20260905171936 100 177 1.0 1.0 0.00 0.00 0.00 42 1017.2
20260905171432 100 323 1.0 2.0 0.00 0.00 0.00 44 1017.0
20260905170928 101 207 1.0 1.0 0.00 0.00 0.00 43 1017.2
20260905170424 102 27 1.0 2.0 0.00 0.00 0.00 41 1017.4
20260905165924 101 135 0.0 0.0 0.00 0.00 0.00 43 1017.2
20260905165419 99 155 0.0 0.0 0.00 0.00 0.00 43 1017.7
20260905164915 99 57 0.0 1.0 0.00 0.00 0.00 44 1017.6
20260905164415 98 142 0.0 1.0 0.00 0.00 0.00 46 1017.6
20260905163915 98 142 0.0 0.0 0.00 0.00 0.00 48 1017.7
20260905163412 98 201 3.0 3.0 0.00 0.00 0.00 46 1017.5
20260905162908 97 90 1.0 1.0 0.00 0.00 0.00 47 1017.6
20260905162402 97 132 0.0 1.0 0.00 0.00 0.00 48 1017.8
20260905161857 97 129 1.0 1.0 0.00 0.00 0.00 47 1017.6
20260905161356 97 16 2.0 2.0 0.00 0.00 0.00 48 1017.8
20260905160855 97 139 0.0 1.0 0.00 0.00 0.00 51 1017.8
20260905160354 95 82 0.0 1.0 0.00 0.00 0.00 49 1017.8
20260905155849 95 134 0.0 0.0 0.00 0.00 0.00 54 1017.9
20260905155348 95 20 2.0 2.0 0.00 0.00 0.00 52 1017.8
20260905154847 95 16 2.0 3.0 0.00 0.00 0.00 54 1017.9
20260905154343 93 76 1.0 1.0 0.00 0.00 0.00 56 1017.9
20260905153838 93 129 0.0 0.0 0.00 0.00 0.00 58 1017.8
20260905153335 93 119 1.0 1.0 0.00 0.00 0.00 55 1018.2
20260905152834 93 62 1.0 1.0 0.00 0.00 0.00 56 1017.9
20260905152334 92 132 1.0 1.0 0.00 0.00 0.00 57 1018.3
20260905151829 92 120 0.0 1.0 0.00 0.00 0.00 57 1018.3
20260905151325 92 141 0.0 0.0 0.00 0.00 0.00 61 1018.1
20260905150824 92 141 1.0 1.0 0.00 0.00 0.00 60 1018.3
20260905150319 92 137 0.0 1.0 0.00 0.00 0.00 60 1018.2
20260905145816 90 143 0.0 0.0 0.00 0.00 0.00 62 1018.2
20260905145310 89 135 0.0 0.0 0.00 0.00 0.00 63 1018.2
20260905144809 89 131 0.0 0.0 0.00 0.00 0.00 69 1018.2
20260905144305 89 136 0.0 0.0 0.00 0.00 0.00 69 1018.4
20260905143804 89 134 0.0 0.0 0.00 0.00 0.00 68 1018.4
20260905143258 89 145 0.0 0.0 0.00 0.00 0.00 70 1018.3
20260905142756 88 157 0.0 1.0 0.00 0.00 0.00 70 1018.5
20260905142251 87 151 0.0 1.0 0.00 0.00 0.00 71 1018.3
20260905141747 86 140 0.0 0.0 0.00 0.00 0.00 74 1018.3
20260905141244 85 152 0.0 0.0 0.00 0.00 0.00 75 1018.4
20260905140739 84 142 0.0 0.0 0.00 0.00 0.00 78 1018.4
20260905140239 83 138 0.0 0.0 0.00 0.00 0.00 78 1018.5
20260905135737 82 139 0.0 0.0 0.00 0.00 0.00 82 1018.5
20260905135234 81 139 0.0 0.0 0.00 0.00 0.00 85 1018.4
20260905134733 81 141 0.0 0.0 0.00 0.00 0.00 86 1018.3
20260905134232 80 142 0.0 0.0 0.00 0.00 0.00 87 1018.4
20260905133727 79 142 0.0 0.0 0.00 0.00 0.00 89 1018.4
20260905133223 79 141 0.0 0.0 0.00 0.00 0.00 89 1018.5
20260905132721 78 142 0.0 0.0 0.00 0.00 0.00 90 1018.4
20260905132217 78 142 0.0 0.0 0.00 0.00 0.00 90 1018.3
20260905131712 77 143 0.0 0.0 0.00 0.00 0.00 91 1018.4
20260905131208 77 142 0.0 0.0 0.00 0.00 0.00 91 1018.3
20260905130707 76 143 0.0 0.0 0.00 0.00 0.00 92 1018.3
20260905130202 76 143 0.0 0.0 0.00 0.00 0.00 93 1018.2
20260905125701 76 143 0.0 0.0 0.00 0.00 0.00 94 1018.5
20260905125157 75 144 0.0 0.0 0.00 0.00 0.00 95 1018.3
20260905124653 75 144 0.0 0.0 0.00 0.00 0.00 95 1018.4
20260905124149 74 144 0.0 0.0 0.00 0.00 0.00 95 1018.3
20260905123644 74 144 0.0 0.0 0.00 0.00 0.00 96 1018.3
20260905123142 74 144 0.0 0.0 0.00 0.00 0.00 96 1018.3
20260905122641 74 144 0.0 0.0 0.00 0.00 0.00 96 1018.1
20260905122136 74 144 0.0 0.0 0.00 0.00 0.00 97 1018.3
20260905121630 73 144 0.0 0.0 0.00 0.00 0.00 97 1018.4
20260905121126 73 144 0.0 0.0 0.00 0.00 0.00 97 1018.3
20260905120625 73 144 0.0 0.0 0.00 0.00 0.00 97 1018.0
20260905120120 73 145 0.0 0.0 0.00 0.00 0.00 97 1018.1
20260905115619 73 145 0.0 0.0 0.00 0.00 0.00 97 1018.0
20260905115114 73 145 0.0 0.0 0.00 0.00 0.00 97 1018.0
20260905114614 73 143 0.0 0.0 0.00 0.00 0.00 97 1018.0
20260905114113 72 144 0.0 0.0 0.00 0.00 0.00 97 1018.0
20260905113608 72 144 0.0 0.0 0.00 0.00 0.00 97 1017.8
20260905113103 72 144 0.0 0.0 0.00 0.00 0.00 96 1017.8
20260905112558 72 143 0.0 0.0 0.00 0.00 0.00 96 1017.7
20260905112054 72 142 0.0 0.0 0.00 0.00 0.00 96 1017.7
20260905111548 72 142 0.0 0.0 0.00 0.00 0.00 96 1017.7
20260905111048 72 140 0.0 0.0 0.00 0.00 0.00 96 1017.6
20260905110547 72 141 0.0 0.0 0.00 0.00 0.00 96 1017.6
20260905110043 72 143 0.0 0.0 0.00 0.00 0.00 96 1017.6
20260905105542 72 143 0.0 0.0 0.00 0.00 0.00 96 1017.5
20260905105041 72 144 0.0 0.0 0.00 0.00 0.00 96 1017.4
20260905104537 72 144 0.0 0.0 0.00 0.00 0.00 96 1017.5
20260905104037 72 144 0.0 0.0 0.00 0.00 0.00 96 1017.4
20260905103532 72 143 0.0 0.0 0.00 0.00 0.00 96 1017.4
20260905103028 72 143 0.0 0.0 0.00 0.00 0.00 96 1017.4
20260905102524 72 140 0.0 0.0 0.00 0.00 0.00 96 1017.2
20260905102020 72 143 0.0 0.0 0.00 0.00 0.00 96 1017.2
20260905101519 72 143 0.0 0.0 0.00 0.00 0.00 96 1017.2
20260905101017 73 143 0.0 0.0 0.00 0.00 0.00 96 1017.3
20260905100514 73 142 0.0 0.0 0.00 0.00 0.00 95 1017.2
20260905100013 73 143 0.0 0.0 0.00 0.00 0.00 95 1017.4
20260905095508 73 142 0.0 0.0 0.00 0.00 0.00 95 1017.2
20260905095003 73 143 0.0 0.0 0.00 0.00 0.00 95 1017.2
20260905094458 73 143 0.0 0.0 0.00 0.00 0.00 95 1017.1
20260905093957 73 144 0.0 0.0 0.00 0.00 0.00 95 1017.1
20260905093452 73 144 0.0 0.0 0.00 0.00 0.00 95 1017.1
20260905092948 73 144 0.0 0.0 0.00 0.00 0.00 95 1016.7
20260905092444 73 144 0.0 0.0 0.00 0.00 0.00 95 1017.0
20260905091939 73 144 0.0 0.0 0.00 0.00 0.00 95 1016.6
20260905091438 73 144 0.0 0.0 0.00 0.00 0.00 95 1016.7
20260905090938 73 145 0.0 0.0 0.00 0.00 0.00 95 1016.9
20260905090433 73 145 0.0 0.0 0.00 0.00 0.00 95 1016.6
20260905085932 73 145 0.0 0.0 0.00 0.00 0.00 95 1016.9
20260905085432 73 145 0.0 0.0 0.00 0.00 0.00 95 1016.9
20260905084928 73 144 0.0 0.0 0.00 0.00 0.00 95 1016.6
20260905084427 73 143 0.0 0.0 0.00 0.00 0.00 95 1016.9
20260905083922 73 144 0.0 0.0 0.00 0.00 0.00 94 1017.1
20260905083418 73 144 0.0 0.0 0.00 0.00 0.00 94 1016.9
20260905082913 73 144 0.0 0.0 0.00 0.00 0.00 94 1017.0
20260905082409 73 144 0.0 0.0 0.00 0.00 0.00 94 1016.7
20260905081909 73 144 0.0 0.0 0.00 0.00 0.00 94 1017.1
20260905081404 73 144 0.0 0.0 0.00 0.00 0.00 94 1017.2
20260905080903 73 144 0.0 0.0 0.00 0.00 0.00 94 1017.1
20260905080358 73 145 0.0 0.0 0.00 0.00 0.00 94 1017.1
20260905075857 73 144 0.0 0.0 0.00 0.00 0.00 94 1017.1
20260905075357 73 143 0.0 0.0 0.00 0.00 0.00 93 1017.1
20260905074856 74 143 0.0 0.0 0.00 0.00 0.00 93 1017.0
20260905074352 74 143 0.0 0.0 0.00 0.00 0.00 93 1017.0
20260905073847 74 143 0.0 0.0 0.00 0.00 0.00 93 1017.0
20260905073343 74 143 0.0 0.0 0.00 0.00 0.00 93 1017.1
20260905072837 74 143 0.0 0.0 0.00 0.00 0.00 93 1017.0
20260905072332 74 142 0.0 0.0 0.00 0.00 0.00 93 1017.0
20260905071829 74 142 0.0 0.0 0.00 0.00 0.00 92 1017.1
20260905071320 74 143 0.0 0.0 0.00 0.00 0.00 92 1017.1
20260905070819 74 142 0.0 0.0 0.00 0.00 0.00 92 1017.3
20260905070316 74 143 0.0 0.0 0.00 0.00 0.00 92 1017.1
20260905065814 74 143 0.0 0.0 0.00 0.00 0.00 92 1017.4
20260905065313 74 144 0.0 0.0 0.00 0.00 0.00 92 1017.2
20260905064809 74 144 0.0 0.0 0.00 0.00 0.00 92 1017.2
20260905064304 74 142 0.0 0.0 0.00 0.00 0.00 92 1017.3
20260905063802 74 142 0.0 0.0 0.00 0.00 0.00 91 1017.5
20260905063259 74 142 0.0 0.0 0.00 0.00 0.00 91 1017.5
20260905062755 74 142 0.0 0.0 0.00 0.00 0.00 91 1017.3
20260905062254 75 142 0.0 0.0 0.00 0.00 0.00 91 1017.4
20260905061749 75 142 0.0 0.0 0.00 0.00 0.00 91 1017.4
20260905061244 75 143 0.0 0.0 0.00 0.00 0.00 91 1017.5
20260905060744 75 143 0.0 0.0 0.00 0.00 0.00 91 1017.4
20260905060241 75 143 0.0 0.0 0.00 0.00 0.00 91 1017.3
20260905055739 75 143 0.0 0.0 0.00 0.00 0.00 91 1017.4
20260905055235 75 141 0.0 0.0 0.00 0.00 0.00 90 1017.3
20260905054729 75 143 0.0 0.0 0.00 0.00 0.00 90 1017.4
20260905054226 75 143 0.0 0.0 0.00 0.00 0.00 90 1017.4
20260905053725 75 143 0.0 0.0 0.00 0.00 0.00 90 1017.5
20260905053221 75 142 0.0 0.0 0.00 0.00 0.00 90 1017.4
20260905052720 75 136 0.0 0.0 0.00 0.00 0.00 90 1017.4
20260905052215 75 122 0.0 0.0 0.00 0.00 0.00 90 1017.3
20260905051715 75 146 0.0 0.0 0.00 0.00 0.00 88 1017.3
20260905051212 75 145 0.0 0.0 0.00 0.00 0.00 89 1017.3
20260905050708 76 144 0.0 0.0 0.00 0.00 0.00 89 1017.4
20260905050204 76 144 0.0 0.0 0.00 0.00 0.00 88 1017.3
20260905045703 76 146 0.0 0.0 0.00 0.00 0.00 88 1017.4
20260905045159 76 144 0.0 0.0 0.00 0.00 0.00 88 1017.3
20260905044654 76 143 0.0 0.0 0.00 0.00 0.00 89 1017.2
20260905044149 76 145 0.0 0.0 0.00 0.00 0.00 89 1017.3
20260905043648 76 146 0.0 0.0 0.00 0.00 0.00 89 1017.5
20260905043143 76 147 0.0 0.0 0.00 0.00 0.00 89 1017.6
20260905042642 76 146 0.0 0.0 0.00 0.00 0.00 89 1017.7
20260905042137 76 148 0.0 0.0 0.00 0.00 0.00 89 1017.7
20260905041633 76 146 0.0 0.0 0.00 0.00 0.00 88 1017.8
20260905041129 77 144 0.0 0.0 0.00 0.00 0.00 89 1017.6
20260905040628 77 149 0.0 0.0 0.00 0.00 0.00 89 1017.8
20260905040127 77 146 0.0 0.0 0.00 0.00 0.00 89 1017.6
20260905035622 77 143 0.0 0.0 0.00 0.00 0.00 89 1017.8
20260905035119 77 148 0.0 0.0 0.00 0.00 0.00 88 1017.7
20260905034615 77 148 0.0 0.0 0.00 0.00 0.00 88 1017.8
20260905034114 77 146 0.0 0.0 0.00 0.00 0.00 88 1017.9
20260905033613 78 149 0.0 0.0 0.00 0.00 0.00 88 1017.9
20260905033109 78 144 0.0 0.0 0.00 0.00 0.00 88 1017.9
20260905032609 78 145 0.0 0.0 0.00 0.00 0.00 88 1018.2
20260905032109 78 148 0.0 0.0 0.00 0.00 0.00 87 1017.9
20260905031605 78 137 0.0 0.0 0.00 0.00 0.00 87 1018.1
20260905031105 78 148 0.0 0.0 0.00 0.00 0.00 87 1018.0
20260905030600 78 144 0.0 0.0 0.00 0.00 0.00 87 1018.1
20260905030055 78 139 0.0 0.0 0.00 0.00 0.00 87 1018.1
20260905025550 78 146 0.0 0.0 0.00 0.00 0.00 87 1018.1
20260905025046 78 146 0.0 0.0 0.00 0.00 0.00 86 1017.9
20260905024542 79 125 0.0 0.0 0.00 0.00 0.00 87 1018.1
20260905024037 79 147 0.0 0.0 0.00 0.00 0.00 85 1017.9
20260905023532 79 149 0.0 0.0 0.00 0.00 0.00 87 1017.9
20260905023033 79 146 0.0 0.0 0.00 0.00 0.00 87 1018.0
20260905022532 79 146 0.0 0.0 0.00 0.00 0.00 87 1018.1
20260905022028 80 150 0.0 0.0 0.00 0.00 0.00 86 1017.9
20260905021527 80 147 0.0 0.0 0.00 0.00 0.00 86 1017.8
20260905021022 80 147 0.0 0.0 0.00 0.00 0.00 86 1017.9
20260905020522 80 148 0.0 0.0 0.00 0.00 0.00 87 1017.9
20260905020018 80 150 0.0 0.0 0.00 0.00 0.00 85 1017.9
20260905015515 80 147 0.0 0.0 0.00 0.00 0.00 84 1017.6
20260905015015 81 146 0.0 0.0 0.00 0.00 0.00 86 1017.6
20260905014510 81 149 0.0 0.0 0.00 0.00 0.00 85 1017.6
20260905014005 81 145 0.0 0.0 0.00 0.00 0.00 84 1017.6
20260905013502 81 146 0.0 0.0 0.00 0.00 0.00 83 1017.5
20260905012957 81 145 0.0 0.0 0.00 0.00 0.00 83 1017.2
20260905012451 82 146 0.0 0.0 0.00 0.00 0.00 83 1017.6
20260905011948 82 146 0.0 0.0 0.00 0.00 0.00 83 1017.4
20260905011444 82 147 0.0 0.0 0.00 0.00 0.00 82 1017.6
20260905010939 82 147 0.0 0.0 0.00 0.00 0.00 81 1017.5
20260905010434 82 139 0.0 0.0 0.00 0.00 0.00 83 1017.4
20260905005930 83 146 0.0 0.0 0.00 0.00 0.00 83 1017.5
20260905005426 83 148 0.0 0.0 0.00 0.00 0.00 82 1017.4
20260905004926 83 147 0.0 0.0 0.00 0.00 0.00 81 1017.2
20260905004421 84 146 0.0 0.0 0.00 0.00 0.00 81 1017.4
20260905003916 84 146 0.0 0.0 0.00 0.00 0.00 79 1017.3
20260905003412 84 149 0.0 0.0 0.00 0.00 0.00 79 1017.3
20260905002908 85 145 0.0 0.0 0.00 0.00 0.00 77 1017.2
20260905002407 85 146 0.0 0.0 0.00 0.00 0.00 76 1017.0
20260905001907 86 146 0.0 0.0 0.00 0.00 0.00 76 1017.4
20260905001402 86 144 0.0 0.0 0.00 0.00 0.00 74 1017.4
20260905000857 87 146 0.0 0.0 0.00 0.00 0.00 74 1017.4
20260905000355 87 146 0.0 0.0 0.00 0.00 0.00 73 1017.3
20260904235848 87 147 0.0 0.0 0.00 0.00 0.00 73 1017.1
20260904235343 88 147 0.0 0.0 0.00 0.00 0.00 72 1017.2
20260904234843 88 143 0.0 0.0 0.00 0.00 0.00 71 1017.1